Miscellaneous Local Product
Issued by NWS North Platte, NE

Home | Current Version | Previous Version | Text Only | Print | Product List | Glossary On
Versions: 1 2 3 4 5 6 7 8 9 10 11 12 13 14 15 16 17 18 19 20 21 22 23 24 25 26 27 28 29 30 31 32 33 34 35 36 37 38 39 40 41 42 43 44 45 46 47 48 49 50
000
AXUS43 KLBF 181810
MISLBF


WESTERN AND NORTH CENTRAL NEBRASKA HOURLY WEATHER ROUNDUP
NATIONAL WEATHER SERVICE NORTH PLATTE NE
100 PM CDT WED OCT 18 2017

NOTE: "FAIR" INDICATES FEW OR NO CLOUDS BELOW 12,000 FEET WITH NO
SIGNIFICANT WEATHER AND/OR OBSTRUCTIONS TO VISIBILITY.

NOTE: STATIONS NOT REPORTING VARIABLES SUCH AS SKY/WEATHER OR
PRESSURE ARE PROVIDED BY RAWS AND APRS NETWORKS AND ARE NOT UNDER
NATIONAL WEATHER SERVICE QUALITY CONTROL.

...OBSERVATIONS IN AND NEAR THE EASTERN PANHANDLE OF NEBRASKA...

CITY           SKY/WX    TMP DP  RH WIND       PRES   REMARKS
PINE RIDGE     SUNNY     64  29  26 N6        30.12R
GORDON         FAIR      63  29  27 N10       30.11S
CHADRON        SUNNY     64  25  22 NE12      30.11F
ALLIANCE       SUNNY     68  26  20 NE10      30.11S
SIDNEY         SUNNY     71  18  13 N14       30.12R
CRESCENT LAKE    N/A     68  27  21 NE10G20     N/A
$$

...OBSERVATIONS IN NORTHERN NEBRASKA AND FAR SOUTHERN SOUTH DAKOTA...

CITY           SKY/WX    TMP DP  RH WIND       PRES   REMARKS
WINNER         FAIR      68  34  28 N17G26    30.04R
VALENTINE      SUNNY     68  29  23 N18       30.07R
THEDFORD       SUNNY     69  33  26 N16G23    30.07R
AINSWORTH      SUNNY     65  36  33 N20G26    30.05R
O`NEILL        SUNNY     69  37  31 N18G24    30.00R
ORD            LGT RAIN  72  31  22 N22G29    29.97R
BROKEN BOW     SUNNY     72  34  24 N20G28    30.00R
VALENTINE NWR    N/A     65  30  27 N13G25      N/A
HALSEY           N/A     70  31  24 N7G21       N/A
BUTTE            N/A     68  35  29 NW14G22     N/A
CHAMBERS         N/A     69  39  33 N6          N/A
EWING            N/A     70  40  33 NE8G17      N/A
$$

...OBSERVATIONS IN SOUTHWEST NEBRASKA AND FAR NORTHEAST COLORADO...

CITY           SKY/WX    TMP DP  RH WIND       PRES   REMARKS
WRAY           FAIR      81  16   9 NW14G20   30.08S
HOLYOKE        FAIR      79  21  11 N14       30.09R
IMPERIAL       SUNNY     78  15   9 N14       30.06R
OGALLALA       SUNNY     74  25  16 NE15      30.07R
NORTH PLATTE   SUNNY     75  30  19 N16G23    30.04R
MCCOOK         SUNNY     78  28  16 N18       30.00R
LEXINGTON      SUNNY     74  33  22 N14G23    29.99R
STAPLETON        N/A     70  33  26 SE3G16      N/A
GOTHENBURG       N/A     73  27  18 N15         N/A
CALLAWAY         N/A     71  35  27 N13         N/A
$$

...OBSERVATIONS IN CENTRAL LINCOLN COUNTY AREA...

CITY           SKY/WX    TMP DP  RH WIND       PRES   REMARKS
N.P. AIRPORT   SUNNY     75  30  19 N16G23    30.04R
N.P. DOWNTOWN    N/A     72  33  24 NE12        N/A
N.P. SOUTHEAST   N/A     72  32  22 N10G18      N/A
N.P. HILLCREST   N/A     72  32  22 NE20G26     N/A
$$

...SOME OBSERVATIONS FROM AROUND THE REGION...

CITY           SKY/WX    TMP DP  RH WIND       PRES   REMARKS
DENVER         PTSUNNY   73  12   9 N3        30.18S
LIMON          CLOUDY    77  14   9 NE14      30.18S
ASPEN          SUNNY     60   6  11 W5        30.35F
LARAMIE        SUNNY     64   8  11 NE3       30.25R
CASPER         SUNNY     64  14  14 SW15      30.14S
CHEYENNE       SUNNY     69   9   9 W12G23    30.20R
SCOTTSBLUFF    SUNNY     70  22  16 NE10      30.12R
GRAND ISLAND   SUNNY     75  39  27 N12       29.95R
OMAHA          MOSUNNY   71  49  45 S15       29.92S
SIOUX FALLS    MOSUNNY   70  40  33 N20G26    29.93R
PIERRE         SUNNY     63  27  25 N12G21    30.04R
RAPID CITY     SUNNY     60  22  23 N10       30.10F
BISMARCK       PTSUNNY   57  21  24 NW20G28   29.99S
KANSAS CITY    MOSUNNY   70  49  47 S14G24    30.02S
HILL CITY      SUNNY     79  34  19 N9        29.99S
WICHITA        MOSUNNY   71  49  45 S18       30.01F
DODGE CITY     SUNNY     80  39  23 W3        30.02R
OKLAHOMA CITY  MOSUNNY   76  45  33 S16       30.09F
DALLAS         MOSUNNY   78  46  32 S13       30.14F
AMARILLO       SUNNY     73  43  33 S13       30.08S
$$




USA.gov is the U.S. government's official web portal to all federal, state and local government web resources and services.